Weather History for Tacoma, WA

Change the Weather History Date:

Thursday, August 29, 2013

  Actual Average Record
Temperature  
Mean Temperature 68 °F -  
Max Temperature 75 °F 73 °F 91 °F (1996)
Min Temperature 62 °F 50 °F 37 °F (1980)
Cooling Degree Days 4    
Growing Degree Days 18 (Base 50)    
Moisture  
Dew Point 64 °F    
Average Humidity 92    
Maximum Humidity 100    
Minimum Humidity 74    
Precipitation  
Precipitation 0.40 in - - ()
Sea Level Pressure  
Sea Level Pressure 29.94 in    
Wind  
Wind Speed 5 mph (SSW)    
Max Wind Speed 13 mph    
Max Gust Speed 18 mph    
Visibility 9 miles    
Events Rain    
Averages and records for this station are not official NWS values.
T = Trace of Precipitation, MM = Missing Value Source: NWS Daily Summary

Daily Weather History Graph

Daily Weather History Graph

Search for Another Location

Airport:

Trip Planner

Search our weather history database for the weather conditions in past years. The results will help you decide how hot, cold, wet, or windy it might be!

Date:

Astronomy

Aug. 29, 2013 Rise Set
Actual Time 6:25 AM PDT 7:54 PM PDT
Civil Twilight 5:53 AM PDT 8:26 PM PDT
Nautical Twilight 5:15 AM PDT 9:05 PM PDT
Astronomical Twilight 4:33 AM PDT 9:46 PM PDT
Moon 12:09 AM PDT (8/29) 3:40 PM PDT (8/29)
Length of Visible Light 14h 32m
Length of Day
13h 29m
Last Quarter, 37% of the Moon is Illuminated
Aug 29
Last Quarter
Sep 5
New
Sep 12
First Quarter
Sep 19
Full
Sep 26
Last Quarter

Hourly Weather History & Observations

Time (PDT) Temp. Dew Point Humidity Pressure Visibility Wind Dir Wind Speed Gust Speed Precip Events Conditions
12:37 AM 64.4 °F 62.6 °F 94% 29.92 in 10.0 mi WSW 2.3 mph - N/A   Scattered Clouds
12:44 AM 64.4 °F 62.6 °F 94% 29.92 in 10.0 mi WSW 2.3 mph - N/A Rain Light Rain
12:58 AM 65.1 °F 63.5 °F 94% 29.93 in 10.0 mi WSW 2.3 mph - 0.00 in   Light Drizzle
1:52 AM 64.4 °F 62.6 °F 94% 29.92 in 10.0 mi SSE 2.3 mph - N/A   Mostly Cloudy
1:58 AM 64.2 °F 63.0 °F 96% 29.93 in 10.0 mi SSE 1.2 mph - 0.01 in   Mostly Cloudy
1:59 AM 64.4 °F 62.6 °F 94% 29.92 in 10.0 mi SE 1.2 mph - N/A Rain Light Rain
2:58 AM 63.9 °F 63.5 °F 99% 29.93 in 10.0 mi SW 2.3 mph - 0.02 in Rain Light Rain
3:11 AM 64.4 °F 64.4 °F 100% 29.91 in 10.0 mi Calm Calm - N/A Rain Light Rain
3:58 AM 64.0 °F 63.7 °F 99% 29.91 in 10.0 mi ESE 2.3 mph - 0.02 in Rain Light Rain
4:58 AM 64.0 °F 63.7 °F 99% 29.89 in 10.0 mi Variable 2.3 mph - 0.02 in Rain Light Rain
5:16 AM 64.4 °F 64.4 °F 100% 29.88 in 10.0 mi SE 3.5 mph - N/A   Mostly Cloudy
5:58 AM 64.4 °F 64.0 °F 99% 29.88 in 10.0 mi Variable 2.3 mph - 0.00 in   Overcast
6:22 AM 64.4 °F 62.6 °F 94% 29.87 in 10.0 mi East 2.3 mph - N/A Rain Light Rain
6:32 AM 64.4 °F 62.6 °F 94% 29.87 in 10.0 mi East 2.3 mph - N/A   Mostly Cloudy
6:38 AM 64.4 °F 62.6 °F 94% 29.87 in 10.0 mi East 3.5 mph - N/A Rain Light Rain
6:58 AM 63.7 °F 62.8 °F 97% 29.88 in 10.0 mi Calm Calm - 0.00 in Rain Light Rain
7:03 AM 64.4 °F 62.6 °F 94% 29.86 in 10.0 mi Variable 1.2 mph - N/A   Overcast
7:58 AM 63.9 °F 63.3 °F 98% 29.90 in 10.0 mi South 2.3 mph - 0.01 in   Mostly Cloudy
8:04 AM 64.4 °F 62.6 °F 94% 29.89 in 10.0 mi SSW 2.3 mph - N/A Rain Light Rain
8:51 AM 64.4 °F 64.4 °F 100% 29.87 in 10.0 mi SSE 2.3 mph - N/A   Mostly Cloudy
8:58 AM 64.2 °F 63.7 °F 98% 29.88 in 10.0 mi SE 4.6 mph - 0.04 in   Mostly Cloudy
9:58 AM 66.2 °F 63.1 °F 90% 29.89 in 10.0 mi SSW 3.5 mph - N/A   Mostly Cloudy
10:39 AM 68.0 °F 62.6 °F 83% 29.91 in 9.0 mi SSW 12.7 mph - N/A Rain Light Rain
10:40 AM 68.0 °F 62.6 °F 83% 29.91 in 7.0 mi SW 11.5 mph - N/A Rain Light Rain
10:58 AM 66.4 °F 64.6 °F 94% 29.92 in 10.0 mi SW 5.8 mph - 0.04 in Rain Light Rain
11:03 AM 66.2 °F 64.4 °F 94% 29.91 in 10.0 mi WSW 5.8 mph - N/A   Overcast
11:42 AM 68.0 °F 66.2 °F 94% 29.93 in 10.0 mi WSW 6.9 mph - N/A Rain Light Rain
11:58 AM 67.1 °F 63.7 °F 89% 29.94 in 9.0 mi SSW 5.8 mph - 0.01 in Rain Light Rain
12:18 PM 68.0 °F 66.2 °F 94% 29.94 in 9.0 mi SW 9.2 mph - N/A Rain Light Rain
12:45 PM 66.2 °F 62.6 °F 88% 29.94 in 10.0 mi SSW 9.2 mph - N/A   Overcast
12:53 PM 66.2 °F 62.6 °F 88% 29.94 in 8.0 mi South 9.2 mph - N/A Rain Light Rain
12:58 PM 66.6 °F 63.5 °F 90% 29.95 in 7.0 mi SSW 8.1 mph - 0.06 in Rain Light Rain
1:25 PM 68.0 °F 66.2 °F 94% 29.93 in 10.0 mi SW 6.9 mph - N/A   Mostly Cloudy
1:58 PM 72.0 °F 66.6 °F 83% 29.95 in 10.0 mi SW 11.5 mph - 0.01 in   Partly Cloudy
2:58 PM 73.0 °F 66.6 °F 80% 29.95 in 10.0 mi South 6.9 mph - N/A   Overcast
3:58 PM 74.5 °F 65.8 °F 74% 29.93 in 10.0 mi South 2.3 mph - N/A   Overcast
4:23 PM 73.4 °F 66.2 °F 78% 29.94 in 10.0 mi South 10.4 mph - N/A Rain Light Rain
4:58 PM 69.1 °F 65.7 °F 89% 29.96 in 6.0 mi SW 11.5 mph - 0.08 in Rain Rain
5:09 PM 69.8 °F 66.2 °F 88% 29.96 in 10.0 mi SW 10.4 mph - N/A   Overcast
5:56 PM 68.0 °F 66.2 °F 94% 29.97 in 5.0 mi South 6.9 mph - N/A   Overcast
5:57 PM 68.0 °F 66.2 °F 94% 29.97 in 4.0 mi South 8.1 mph - N/A Rain Rain
5:58 PM 68.0 °F 66.2 °F 94% 29.98 in 4.0 mi South 8.1 mph - 0.00 in Rain Rain
6:03 PM 68.0 °F 66.2 °F 94% 29.97 in 2.5 mi SSE 12.7 mph - N/A Rain Rain
6:08 PM 68.0 °F 66.2 °F 94% 29.97 in 4.0 mi South 9.2 mph - N/A Rain Light Rain
6:17 PM 68.0 °F 66.2 °F 94% 29.97 in 10.0 mi South 8.1 mph - N/A   Overcast
6:58 PM 67.8 °F 66.6 °F 96% 29.99 in 10.0 mi SSW 6.9 mph - 0.06 in   Mostly Cloudy
7:08 PM 68.0 °F 66.2 °F 94% 29.98 in 10.0 mi SSW 5.8 mph - N/A   Mostly Cloudy
7:13 PM 68.0 °F 66.2 °F 94% 29.98 in 10.0 mi South 5.8 mph - N/A   Mostly Cloudy
7:33 PM 68.0 °F 66.2 °F 94% 29.98 in 10.0 mi South 5.8 mph - N/A   Scattered Clouds
7:58 PM 67.6 °F 66.0 °F 95% 30.00 in 10.0 mi South 8.1 mph - N/A   Scattered Clouds
8:58 PM 67.1 °F 65.7 °F 95% 30.02 in 10.0 mi SSW 10.4 mph - N/A   Overcast
9:16 PM 68.0 °F 64.4 °F 88% 30.01 in 10.0 mi South 9.2 mph - N/A Rain Light Rain
9:25 PM 66.2 °F 62.6 °F 88% 30.01 in 10.0 mi South 10.4 mph 18.4 mph N/A   Mostly Cloudy
9:42 PM 66.2 °F 62.6 °F 88% 30.01 in 10.0 mi SSW 11.5 mph - N/A Rain Light Rain
9:49 PM 66.2 °F 62.6 °F 88% 30.01 in 8.0 mi SSW 10.4 mph - N/A Rain Light Rain
9:58 PM 66.0 °F 63.1 °F 90% 30.02 in 7.0 mi SSW 10.4 mph - 0.02 in Rain Light Rain
10:03 PM 66.2 °F 62.6 °F 88% 30.02 in 10.0 mi SSW 11.5 mph - N/A   Overcast
10:58 PM 64.9 °F 63.3 °F 94% 30.04 in 10.0 mi South 8.1 mph - 0.00 in   Mostly Cloudy
11:58 PM 62.1 °F 61.7 °F 99% 30.06 in 10.0 mi South 5.8 mph - N/A   Clear